Weather History for Haines, AK

Change the Weather History Date:

Saturday, November 24, 2012

  Actual Average Record
Temperature  
Mean Temperature 22 °F -  
Max Temperature 24 °F 33 °F 50 °F (2005)
Min Temperature 21 °F 25 °F 5 °F (2006)
Degree Days  
Heating Degree Days 42    
Moisture  
Dew Point 10 °F    
Average Humidity 58    
Maximum Humidity 63    
Minimum Humidity 53    
Precipitation  
Precipitation 0.00 in - - ()
Sea Level Pressure  
Sea Level Pressure 29.95 in    
Wind  
Wind Speed 15 mph (NW)    
Max Wind Speed 21 mph    
Max Gust Speed 28 mph    
Visibility 10 miles    
Events      
Averages and records for this station are not official NWS values.
T = Trace of Precipitation, MM = Missing Value Source: NWS Daily Summary

Daily Weather History Graph

Daily Weather History Graph

Search for Another Location

Airport:

Trip Planner

Search our weather history database for the weather conditions in past years. The results will help you decide how hot, cold, wet, or windy it might be!

Date:

Astronomy

Nov. 24, 2012 Rise Set
Actual Time 8:17 AM AKST 3:19 PM AKST
Civil Twilight 7:27 AM AKST 4:09 PM AKST
Nautical Twilight 6:35 AM AKST 5:02 PM AKST
Astronomical Twilight 5:46 AM AKST 5:50 PM AKST
Moon 1:46 PM AKST (11/24) 3:59 AM AKST (11/24)
Length of Visible Light 8h 42m
Length of Day
7h 01m
Waxing Gibbous, 88% of the Moon is Illuminated
Nov 24
Waxing Gibbous
Nov 28
Full
Dec 6
Last Quarter
Dec 12
New
Dec 19
First Quarter

Hourly Weather History & Observations

Time (AKST) Temp. Windchill Dew Point Humidity Pressure Visibility Wind Dir Wind Speed Gust Speed Precip Events Conditions
12:54 AM 24.1 °F 13.1 °F 12.9 °F 62% 29.83 in 10.0 mi NNW 11.5 mph 20.7 mph N/A   Overcast
1:54 AM 23.0 °F 10.1 °F 12.0 °F 63% 29.83 in 10.0 mi NW 15.0 mph 21.9 mph N/A   Overcast
2:54 AM 23.0 °F 9.2 °F 10.9 °F 60% 29.83 in 10.0 mi NW 17.3 mph 24.2 mph N/A   Overcast
3:54 AM 24.1 °F 10.6 °F 10.9 °F 57% 29.84 in 10.0 mi NW 17.3 mph 26.5 mph N/A   Overcast
4:54 AM 24.1 °F 11.0 °F 10.9 °F 57% 29.84 in 10.0 mi NNW 16.1 mph 26.5 mph N/A   Overcast
5:54 AM 24.1 °F 12.5 °F 10.9 °F 57% 29.85 in 10.0 mi NNW 12.7 mph 25.3 mph N/A   Overcast
6:54 AM 23.0 °F 11.1 °F 10.9 °F 60% 29.86 in 10.0 mi NW 12.7 mph 25.3 mph N/A   Overcast
7:54 AM 23.0 °F 10.6 °F 10.0 °F 58% 29.88 in 10.0 mi NW 13.8 mph 25.3 mph N/A   Overcast
8:54 AM 21.9 °F 8.2 °F 10.0 °F 60% 29.89 in 10.0 mi NW 16.1 mph 21.9 mph N/A   Overcast
9:54 AM 23.0 °F 8.7 °F 9.0 °F 55% 29.91 in 10.0 mi NW 18.4 mph 23.0 mph N/A   Partly Cloudy
10:54 AM 24.1 °F 9.8 °F 9.0 °F 53% 29.92 in 10.0 mi NW 19.6 mph 25.3 mph N/A   Mostly Cloudy
11:54 AM 24.1 °F 9.8 °F 9.0 °F 53% 29.93 in 10.0 mi NW 19.6 mph 26.5 mph N/A   Clear
12:54 PM 24.1 °F 11.0 °F 10.0 °F 55% 29.95 in 10.0 mi NW 16.1 mph 24.2 mph N/A   Clear
1:54 PM 24.1 °F 12.5 °F 10.0 °F 55% 29.96 in 10.0 mi NW 12.7 mph 27.6 mph N/A   Clear
2:54 PM 24.1 °F 11.5 °F 9.0 °F 53% 29.97 in 10.0 mi NW 15.0 mph 24.2 mph N/A   Partly Cloudy
3:54 PM 23.0 °F 11.1 °F 9.0 °F 55% 29.99 in 10.0 mi NW 12.7 mph 23.0 mph N/A   Clear
4:54 PM 21.9 °F 8.2 °F 9.0 °F 58% 30.01 in 10.0 mi NW 16.1 mph 23.0 mph N/A   Mostly Cloudy
5:54 PM 21.9 °F 7.8 °F 10.0 °F 60% 30.01 in 10.0 mi WNW 17.3 mph 24.2 mph N/A   Overcast
6:54 PM 21.9 °F 9.2 °F 9.0 °F 58% 30.04 in 10.0 mi NW 13.8 mph 21.9 mph N/A   Overcast
7:54 PM 21.9 °F 6.5 °F 9.0 °F 58% 30.05 in 10.0 mi WNW 20.7 mph 25.3 mph N/A   Overcast
8:54 PM 21.0 °F 8.1 °F 9.0 °F 60% 30.08 in 10.0 mi WNW 13.8 mph - N/A   Partly Cloudy
9:54 PM 21.0 °F 9.3 °F 9.0 °F 60% 30.10 in 10.0 mi NW 11.5 mph - N/A   Clear
10:54 PM 21.0 °F 9.3 °F 9.0 °F 60% 30.12 in 10.0 mi NW 11.5 mph - N/A   Clear
11:54 PM 21.0 °F 8.1 °F 8.1 °F 57% 30.14 in 10.0 mi WNW 13.8 mph - N/A   Clear